AE5HO Weather Reports


Display with metric or nautical units.
time (UTC)temp
F
wind
direction
speed
MPH
gust
MPH
rain 1hr
in
rain 24hr
in
rain mn
in
humidity
%
barometer
mb
20260505053146 75 32 2.0 4.0 0.00 0.00 0.00 74 1005.7
20260505052644 75 48 0.0 4.0 0.00 0.00 0.00 74 1005.7
20260505052141 75 295 2.0 6.0 0.00 0.00 0.00 74 1005.6
20260505051637 75 90 0.0 3.0 0.00 0.00 0.00 74 1005.7
20260505051136 75 270 0.0 3.0 0.00 0.00 0.00 74 1006.0
20260505050633 75 313 5.0 9.0 0.00 0.00 0.00 73 1005.9
20260505050132 75 218 0.0 8.0 0.00 0.00 0.00 74 1006.0
20260505041601 75 185 1.0 3.0 0.00 0.00 0.00 73 1006.0
20260505041058 75 104 3.0 9.0 0.00 0.00 0.00 72 1006.2
20260505040555 75 96 0.0 7.0 0.00 0.00 0.00 72 1006.0
20260505040053 75 217 0.0 4.0 0.00 0.00 0.00 73 1006.3
20260505035549 75 270 0.0 4.0 0.00 0.00 0.00 72 1006.1
20260505035046 75 258 2.0 4.0 0.00 0.00 0.00 72 1006.2
20260505034542 75 257 0.0 6.0 0.00 0.00 0.00 72 1006.1
20260505034039 75 90 0.0 3.0 0.00 0.00 0.00 73 1005.9
20260505033536 75 283 10.0 10.0 0.00 0.00 0.00 73 1005.9
20260505033034 75 94 3.0 4.0 0.00 0.00 0.00 72 1006.0
20260505032532 75 75 3.0 4.0 0.00 0.00 0.00 72 1005.8
20260505032028 75 15 0.0 3.0 0.00 0.00 0.00 72 1005.9
20260505031525 75 289 2.0 8.0 0.00 0.00 0.00 72 1006.0
20260505031021 75 180 0.0 3.0 0.00 0.00 0.00 72 1006.1
20260505030519 75 0 0.0 3.0 0.00 0.00 0.00 72 1006.0
20260505030015 75 275 2.0 3.0 0.00 0.00 0.00 72 1006.3
20260505025510 75 71 0.0 2.0 0.00 0.00 0.00 71 1006.0
20260505025010 76 90 1.0 4.0 0.00 0.00 0.00 71 1006.2
20260505024506 76 90 0.0 7.0 0.00 0.00 0.00 71 1006.1
20260505024003 76 63 2.0 4.0 0.00 0.00 0.00 71 1006.1
20260505023500 76 60 1.0 5.0 0.00 0.00 0.00 71 1005.9
20260505022958 76 192 1.0 2.0 0.00 0.00 0.00 70 1006.0
20260505022455 76 188 0.0 2.0 0.00 0.00 0.00 70 1006.1
20260505021952 76 195 0.0 3.0 0.00 0.00 0.00 70 1005.7
20260505021448 76 281 3.0 3.0 0.00 0.00 0.00 70 1005.9
20260505020944 76 90 0.0 3.0 0.00 0.00 0.00 70 1005.9
20260505020439 76 114 0.0 2.0 0.00 0.00 0.00 70 1005.8
20260505015937 76 35 1.0 3.0 0.00 0.00 0.00 70 1006.1
20260505015434 76 105 1.0 3.0 0.00 0.00 0.00 69 1006.0
20260505014931 76 180 0.0 3.0 0.00 0.00 0.00 69 1005.7
20260505014428 77 180 1.0 3.0 0.00 0.00 0.00 69 1006.0
20260505013925 77 186 1.0 3.0 0.00 0.00 0.00 69 1006.1
20260505013422 77 184 0.0 7.0 0.00 0.00 0.00 68 1005.8
20260505012920 77 257 1.0 3.0 0.00 0.00 0.00 68 1005.9
20260505012418 77 263 0.0 3.0 0.00 0.00 0.00 68 1005.6
20260505011914 77 245 0.0 4.0 0.00 0.00 0.00 68 1006.1
20260505011410 77 292 0.0 5.0 0.00 0.00 0.00 67 1005.8
20260505010907 77 263 4.0 5.0 0.00 0.00 0.00 67 1006.0
20260505010403 77 196 2.0 5.0 0.00 0.00 0.00 67 1006.3
20260505005859 78 157 2.0 5.0 0.00 0.00 0.00 66 1006.1
20260505005356 78 276 0.0 5.0 0.00 0.00 0.00 66 1006.1
20260505004854 78 85 0.0 4.0 0.00 0.00 0.00 66 1005.7
20260505004349 78 185 3.0 8.0 0.00 0.00 0.00 66 1005.9
20260505003847 78 169 2.0 7.0 0.00 0.00 0.00 66 1005.9
20260505003344 78 321 4.0 5.0 0.00 0.00 0.00 65 1005.7
20260505002840 78 318 3.0 5.0 0.00 0.00 0.00 65 1006.2
20260505002337 79 270 2.0 4.0 0.00 0.00 0.00 65 1005.8
20260505001835 79 121 2.0 8.0 0.00 0.00 0.00 64 1005.9
20260505001332 77 180 0.0 0.0 0.00 0.00 0.00 57 1006.1
20260505000829 77 180 0.0 0.0 0.00 0.00 0.00 58 1006.1
20260505000327 77 180 0.0 0.0 0.00 0.00 0.00 58 1006.4
20260504235823 77 180 0.0 0.0 0.00 0.00 0.00 58 1006.2
20260504235320 77 180 0.0 0.0 0.00 0.00 0.00 58 1006.1
20260504234817 77 180 0.0 0.0 0.00 0.00 0.00 58 1006.4
20260504234315 77 180 0.0 0.0 0.00 0.00 0.00 58 1006.2
20260504233811 77 180 0.0 0.0 0.00 0.00 0.00 58 1006.2
20260504233307 77 180 0.0 0.0 0.00 0.00 0.00 58 1006.5
20260504232804 77 180 0.0 0.0 0.00 0.00 0.00 58 1006.5
20260504232301 77 180 0.0 0.0 0.00 0.00 0.00 58 1006.5
20260504231758 77 180 0.0 0.0 0.00 0.00 0.00 58 1006.4
20260504231254 77 180 0.0 0.0 0.00 0.00 0.00 58 1006.1
20260504230750 77 180 0.0 0.0 0.00 0.00 0.00 58 1006.3
20260504230248 77 180 0.0 0.0 0.00 0.00 0.00 58 1006.2
20260504225747 77 180 0.0 0.0 0.00 0.00 0.00 58 1006.5
20260504225243 77 180 0.0 0.0 0.00 0.00 0.00 58 1006.7
20260504224740 77 180 0.0 0.0 0.00 0.00 0.00 58 1006.8
20260504224237 77 180 0.0 0.0 0.00 0.00 0.00 58 1006.5
20260504223733 77 180 0.0 0.0 0.00 0.00 0.00 58 1006.5
20260504223229 77 180 0.0 0.0 0.00 0.00 0.00 58 1006.5
20260504222727 77 180 0.0 0.0 0.00 0.00 0.00 58 1006.7
20260504222223 77 180 0.0 0.0 0.00 0.00 0.00 58 1006.5
20260504221721 77 180 0.0 0.0 0.00 0.00 0.00 58 1006.6
20260504221218 77 180 0.0 0.0 0.00 0.00 0.00 58 1006.6
20260504220714 77 180 0.0 0.0 0.00 0.00 0.00 58 1006.7
20260504220212 77 180 0.0 0.0 0.00 0.00 0.00 58 1006.5
20260504215708 77 180 0.0 0.0 0.00 0.00 0.00 58 1006.7
20260504215206 77 180 0.0 0.0 0.00 0.00 0.00 58 1007.1
20260504214701 77 180 0.0 0.0 0.00 0.00 0.00 58 1006.9
20260504214158 77 180 0.0 0.0 0.00 0.00 0.00 58 1007.2
20260504213654 77 180 0.0 0.0 0.00 0.00 0.00 58 1007.5
20260504213151 77 180 0.0 0.0 0.00 0.00 0.00 58 1007.3
20260504212647 77 180 0.0 0.0 0.00 0.00 0.00 58 1007.6
20260504212144 77 180 0.0 0.0 0.00 0.00 0.00 58 1007.6
20260504211642 77 180 0.0 0.0 0.00 0.00 0.00 58 1007.7
20260504211138 77 180 0.0 0.0 0.00 0.00 0.00 58 1007.6
20260504210636 77 180 0.0 0.0 0.00 0.00 0.00 58 1007.7
20260504210132 77 180 0.0 0.0 0.00 0.00 0.00 58 1007.9
20260504205630 77 180 0.0 0.0 0.00 0.00 0.00 58 1008.0
20260504205127 77 180 0.0 0.0 0.00 0.00 0.00 58 1008.2
20260504204625 77 180 0.0 0.0 0.00 0.00 0.00 58 1007.9
20260504204124 77 180 0.0 0.0 0.00 0.00 0.00 58 1008.3
20260504203622 77 180 0.0 0.0 0.00 0.00 0.00 58 1008.4
20260504203119 76 180 0.0 0.0 0.00 0.00 0.00 58 1008.4
20260504202614 76 180 0.0 0.0 0.00 0.00 0.00 58 1008.4
20260504202111 76 180 0.0 0.0 0.00 0.00 0.00 58 1008.6
20260504201608 76 180 0.0 0.0 0.00 0.00 0.00 58 1008.7
20260504201106 76 180 0.0 0.0 0.00 0.00 0.00 58 1009.0
20260504200603 76 180 0.0 0.0 0.00 0.00 0.00 58 1008.7
20260504200059 76 180 0.0 0.0 0.00 0.00 0.00 58 1008.8
20260504195555 76 180 0.0 0.0 0.00 0.00 0.00 58 1008.9
20260504195051 76 180 0.0 0.0 0.00 0.00 0.00 58 1009.3
20260504194548 76 180 0.0 0.0 0.00 0.00 0.00 58 1009.4
20260504194043 76 180 0.0 0.0 0.00 0.00 0.00 58 1009.6
20260504193540 76 180 0.0 0.0 0.00 0.00 0.00 58 1009.4
20260504193039 76 180 0.0 0.0 0.00 0.00 0.00 58 1009.7
20260504192537 76 180 0.0 0.0 0.00 0.00 0.00 58 1009.4
20260504192035 76 180 0.0 0.0 0.00 0.00 0.00 58 1009.5
20260504191533 76 180 0.0 0.0 0.00 0.00 0.00 58 1009.7
20260504191028 76 180 0.0 0.0 0.00 0.00 0.00 58 1009.8
20260504190525 76 180 0.0 0.0 0.00 0.00 0.00 58 1009.6
20260504190021 76 180 0.0 0.0 0.00 0.00 0.00 58 1010.0
20260504185518 76 180 0.0 0.0 0.00 0.00 0.00 58 1010.1
20260504185015 76 180 0.0 0.0 0.00 0.00 0.00 58 1010.1
20260504184510 76 180 0.0 0.0 0.00 0.00 0.00 58 1010.1
20260504184006 76 180 0.0 0.0 0.00 0.00 0.00 58 1010.3
20260504183503 76 180 0.0 0.0 0.00 0.00 0.00 58 1010.4
20260504183001 75 180 0.0 0.0 0.00 0.00 0.00 58 1010.6
20260504182458 75 180 0.0 0.0 0.00 0.00 0.00 58 1010.5
20260504181955 75 180 0.0 0.0 0.00 0.00 0.00 58 1010.3
20260504181452 75 180 0.0 0.0 0.00 0.00 0.00 58 1010.5
20260504180950 75 180 0.0 0.0 0.00 0.00 0.00 57 1010.8
20260504180449 75 180 0.0 0.0 0.00 0.00 0.00 57 1010.9
20260504175947 75 180 0.0 0.0 0.00 0.00 0.00 57 1010.8
20260504175444 75 180 0.0 0.0 0.00 0.00 0.00 57 1010.8
20260504174941 75 180 0.0 0.0 0.00 0.00 0.00 57 1011.1
20260504174439 75 180 0.0 0.0 0.00 0.00 0.00 57 1011.0
20260504173936 75 180 0.0 0.0 0.00 0.00 0.00 57 1010.8
20260504173432 75 180 0.0 0.0 0.00 0.00 0.00 57 1011.3
20260504172930 75 180 0.0 0.0 0.00 0.00 0.00 57 1011.2
20260504172426 75 180 0.0 0.0 0.00 0.00 0.00 57 1011.4
20260504171922 75 180 0.0 0.0 0.00 0.00 0.00 57 1011.5
20260504171420 75 180 0.0 0.0 0.00 0.00 0.00 57 1011.4
20260504170917 75 180 0.0 0.0 0.00 0.00 0.00 57 1011.7
20260504170413 75 188 0.0 0.0 0.00 0.00 0.00 57 1011.8
20260504160332 75 195 0.0 0.0 0.00 0.00 0.00 57 1012.3
20260504150756 75 195 0.0 0.0 0.00 0.00 0.00 57 1012.9
20260504150253 75 195 0.0 0.0 0.00 0.00 0.00 57 1013.0
20260504141223 74 195 0.0 0.0 0.00 0.00 0.00 56 1013.1
20260504140720 74 195 0.0 0.0 0.00 0.00 0.00 56 1013.4
20260504140215 74 195 0.0 0.0 0.00 0.00 0.00 56 1013.3
20260504130643 74 195 0.0 0.0 0.00 0.00 0.00 56 1013.4
20260504130140 74 195 0.0 0.0 0.00 0.00 0.00 56 1013.4
20260504120104 75 180 0.0 0.0 0.00 0.00 0.00 56 1012.8
20260504110531 75 180 0.0 0.0 0.00 0.00 0.00 56 1013.3
20260504100454 75 180 0.0 0.0 0.00 0.00 0.00 56 1013.1
20260504081847 75 172 0.0 0.0 0.00 0.00 0.00 56 1013.8
20260504081343 75 172 0.0 0.0 0.00 0.00 0.00 56 1013.8
20260504080839 75 180 0.0 0.0 0.00 0.00 0.00 56 1014.1
20260504080337 75 180 0.0 0.0 0.00 0.00 0.00 56 1013.9
20260504070304 76 180 0.0 0.0 0.00 0.00 0.00 56 1014.5
20260504060224 76 180 0.0 0.0 0.00 0.00 0.00 56 1015.3